Theta_e
339 343 344 346 352 351 356 356 354 353 353 353 350 352 350 351 351 361 351 350 347 352 352 346 348 347 347 347 346 345 344 344 344 344 340 339 337 336 334 334 332 333 334 333 333 333 333 332 332
344 345 346 347 349 351 355 353 354 352 352 352 351 351 351 349 352 352 351 349 348 350 351 348 346 345 346 346 342 341 342 341 339 338 337 336 335 333 330 326 324 327 330 330 331 331 330 329 329
345 345 348 346 349 355 351 348 347 349 352 350 350 350 349 350 349 351 351 349 348 348 348 348 345 345 345 344 342 341 342 339 339 339 337 332 328 324 320 320 323 328 329 329 329 328 326 325 323
345 345 347 347 346 348 343 345 346 348 350 350 348 346 348 347 347 350 350 348 347 348 346 347 344 344 343 343 342 341 335 331 329 328 326 323 320 318 317 321 325 328 327 327 328 327 325 322 319
346 348 346 343 343 344 344 345 345 346 347 347 348 344 347 349 349 350 349 347 348 345 343 345 344 344 345 345 342 337 332 331 333 333 329 322 319 318 321 321 322 321 324 326 326 325 323 320 319
349 350 346 347 347 345 344 343 343 344 344 346 347 345 347 350 349 350 349 348 348 344 343 344 343 345 347 344 341 331 331 331 331 329 324 320 319 317 322 322 322 322 322 322 322 322 322 322 322
346 349 348 347 346 345 344 343 344 344 344 343 346 344 349 350 349 349 348 348 347 345 343 344 344 349 345 342 335 333 330 327 327 324 321 319 322 320 322 323 323 323 323 324 323 323 323 323 323
345 347 348 346 346 344 342 345 344 343 344 347 346 345 346 349 349 348 347 347 346 345 343 345 346 345 344 340 336 335 330 325 321 321 321 321 323 323 324 324 327 324 324 325 326 326 325 324 324
342 348 347 345 344 342 342 343 343 344 345 347 347 346 348 348 348 348 347 346 346 344 343 344 345 344 341 338 338 333 330 323 321 323 322 326 331 331 330 329 326 325 326 326 326 326 326 325 326
344 347 346 344 343 343 342 342 342 343 344 347 347 349 348 349 347 347 347 346 345 344 343 344 344 344 340 337 336 334 334 332 333 332 333 332 332 332 329 327 326 326 326 325 326 325 325 326 327
343 346 343 343 342 342 342 342 341 342 341 341 344 347 351 349 348 347 346 346 345 345 345 344 345 344 339 338 336 333 333 333 334 335 333 332 332 332 331 330 330 330 330 330 329 329 329 327 327
343 341 342 341 341 340 340 340 341 341 344 347 344 342 351 351 350 348 346 345 345 346 346 345 345 344 341 338 335 331 332 332 331 333 334 332 332 332 331 331 330 331 330 330 329 329 329 329 328
341 340 340 341 339 340 337 338 340 342 346 345 345 344 349 350 349 349 346 346 346 347 347 346 344 343 342 340 335 331 331 330 324 330 332 332 332 333 333 332 332 332 331 331 330 330 330 330 327
336 337 339 339 338 338 337 337 341 345 348 348 348 350 349 350 350 349 348 348 348 347 347 347 346 344 343 340 337 333 328 329 326 324 329 330 332 332 333 332 332 333 333 331 330 330 329 329 327
335 338 337 336 335 335 336 338 340 343 347 350 350 350 349 350 349 349 347 347 348 347 347 348 348 347 340 340 336 331 329 328 325 325 327 330 329 327 328 331 333 334 334 334 333 331 330 329 328
335 337 339 336 334 336 336 338 343 343 344 348 349 349 349 350 348 347 346 347 347 346 344 344 344 346 341 339 341 338 330 333 330 328 327 330 331 329 329 330 334 333 333 331 331 330 331 329 328
337 337 336 335 334 335 336 336 343 344 344 346 347 348 349 350 348 348 346 345 345 345 345 345 343 343 342 342 340 340 336 336 334 333 334 333 330 331 333 334 333 331 330 329 329 330 328 328 327
337 335 334 335 335 335 335 336 339 344 345 345 347 348 347 346 346 345 344 343 344 344 344 345 344 343 343 342 340 339 338 337 335 334 334 331 329 328 326 328 329 330 328 328 328 329 328 327 327
334 334 334 333 333 333 334 334 335 343 345 345 346 347 345 343 341 342 344 344 345 343 344 344 342 341 340 339 339 339 338 336 334 331 329 327 326 327 328 326 326 326 325 326 325 324 323 323 323
334 334 333 332 333 335 333 334 334 340 341 340 342 346 342 340 343 344 344 344 343 342 342 342 339 339 339 338 338 338 336 335 332 329 330 329 327 326 325 325 323 323 320 319 319 318 317 316 316
335 334 333 333 332 332 334 337 337 341 341 339 339 340 340 340 347 345 343 343 342 342 341 340 339 340 339 339 338 336 336 335 334 331 329 328 326 325 324 320 318 317 316 314 314 313 313 313 313
334 332 330 331 332 333 334 335 334 338 343 342 341 342 341 341 346 343 343 343 341 340 339 340 339 339 339 339 338 338 336 333 329 328 328 327 324 320 317 316 315 314 313 312 312 312 312 311 311
330 330 330 331 332 332 333 337 335 340 340 340 341 342 340 342 345 343 342 341 340 340 340 339 339 339 338 337 336 335 331 328 328 327 326 325 320 317 316 314 314 314 313 312 312 312 311 310 310
331 331 330 331 333 335 334 337 335 334 338 337 340 344 341 343 345 343 342 341 340 340 340 339 338 336 335 334 332 331 330 326 323 324 321 318 317 314 315 315 314 313 313 312 312 312 311 310 310
332 333 335 334 335 335 337 337 337 336 337 337 340 343 343 345 344 343 343 341 340 340 340 337 336 336 333 330 328 327 328 328 326 322 318 316 313 313 314 315 312 312 313 313 313 312 311 310 310
334 335 336 339 337 335 332 337 339 339 339 338 340 343 344 344 342 341 341 339 336 337 336 333 329 328 328 327 327 327 328 323 321 318 314 313 313 313 315 314 311 313 313 314 313 312 311 311 310
334 336 336 336 333 339 335 337 337 339 339 340 342 343 344 342 342 337 334 332 332 331 330 326 324 325 326 327 327 327 326 322 318 315 315 314 315 314 313 312 312 313 313 314 314 312 312 311 311
337 336 336 335 340 339 334 335 340 338 337 339 341 343 343 341 336 333 330 330 329 328 326 327 327 326 326 326 326 326 324 319 316 315 316 316 317 316 314 311 312 312 313 315 315 313 313 312 312
337 338 338 339 337 339 339 336 338 337 337 338 341 342 342 340 335 329 328 328 328 327 326 328 327 325 325 325 326 324 320 317 315 315 316 316 316 316 313 312 312 312 313 314 315 314 314 314 314
337 339 339 342 341 340 345 340 338 338 337 338 339 342 341 338 332 329 326 326 327 327 326 326 326 325 324 325 324 322 319 316 315 316 316 316 316 316 313 312 312 313 313 314 315 314 314 314 314
Wind_Speed
4 3 4 7 5 3 5 5 1 6 6 2 4 2 5 3 6 3 8 12 19 22 20 19 21 19 17 16 15 14 13 12 11 10 9 8 7 6 6 6 7 5 6 6 6 5 5 5 6
4 4 7 4 4 5 6 4 4 5 6 6 5 4 3 6 3 7 10 13 21 23 21 20 21 19 17 16 15 14 14 12 10 10 9 8 8 7 5 4 4 4 4 4 4 4 4 4 4
3 5 5 1 2 6 8 5 7 8 6 1 3 2 3 4 3 8 3 17 23 20 19 18 20 19 17 15 15 14 12 11 10 10 9 8 6 5 5 5 5 5 5 5 5 5 5 4 3
5 5 5 3 12 8 10 7 6 8 5 3 3 2 4 3 2 5 15 20 22 19 18 17 19 16 14 12 12 11 10 10 10 9 8 6 5 5 5 6 6 7 6 6 6 5 6 5 5
3 4 6 11 12 8 4 3 4 6 2 2 1 6 3 4 6 13 18 21 19 17 15 14 17 15 15 14 12 10 9 7 7 7 6 5 5 5 6 7 8 8 8 7 7 6 6 5 5
4 3 6 10 9 6 3 4 2 2 1 2 3 2 4 7 10 14 17 19 16 16 15 14 15 14 14 11 11 9 8 7 7 5 5 5 5 6 5 6 7 7 7 8 7 7 6 6 4
4 6 9 4 8 9 4 1 3 1 2 2 2 2 4 8 10 14 15 17 15 14 15 15 14 14 13 11 9 8 7 6 6 5 4 4 4 6 4 3 3 4 4 4 5 5 5 4 3
5 4 6 3 2 10 4 3 2 4 1 4 2 2 5 11 15 16 15 15 15 14 14 14 14 13 11 9 9 8 7 6 5 4 4 4 4 3 2 1 3 2 2 3 4 5 6 6 6
3 6 4 7 2 6 3 4 1 1 3 6 5 3 4 15 17 16 16 15 15 14 14 14 13 12 10 9 8 6 7 7 6 3 2 2 2 2 3 4 6 4 5 5 6 8 9 10 11
4 4 6 4 4 3 3 2 1 4 6 8 8 5 6 18 19 18 17 17 17 15 15 13 12 12 11 9 8 8 7 6 6 5 4 3 3 3 3 5 7 8 8 9 9 11 12 11 11
2 6 4 4 3 5 7 5 4 8 7 3 5 8 10 15 16 15 15 15 15 14 14 14 13 12 12 10 9 9 9 7 6 5 4 3 4 4 5 6 6 7 8 10 8 10 11 10 12
4 2 3 2 1 4 7 7 6 6 8 7 5 4 12 12 12 14 13 12 12 13 14 14 14 14 12 11 11 10 10 9 6 5 5 4 6 6 7 8 9 10 11 9 11 12 11 14 14
5 4 4 4 8 6 7 6 7 2 5 5 3 3 8 8 10 11 10 10 10 13 13 13 13 13 13 14 11 10 9 8 9 7 5 7 6 9 9 11 13 14 15 15 12 16 16 18 17
6 8 4 2 2 2 9 2 4 4 3 2 1 3 5 7 9 9 11 11 10 10 11 12 14 15 15 15 11 11 8 7 9 8 7 8 8 10 13 15 18 18 18 19 20 20 20 20 20
5 6 4 4 3 4 9 6 0 2 1 0 2 4 5 6 8 9 8 9 8 9 9 11 13 12 20 20 16 14 12 10 10 11 7 6 9 12 11 16 20 20 20 19 22 20 20 18 20
5 3 4 5 3 2 5 3 3 1 4 2 2 4 5 6 7 6 5 5 5 6 9 10 13 9 10 10 11 13 14 9 10 10 6 7 8 10 14 18 17 16 16 17 21 20 20 21 21
9 8 4 4 2 3 4 9 3 2 4 5 4 4 5 6 6 4 4 5 4 6 5 3 6 8 8 8 8 9 10 9 7 5 4 4 7 10 10 11 14 16 19 20 21 19 20 21 21
6 9 8 8 4 6 8 9 3 5 6 6 5 5 4 5 4 3 1 2 2 2 3 5 7 7 7 5 6 7 8 5 5 4 1 3 4 6 8 11 13 14 15 17 18 19 18 19 19
9 10 10 5 3 8 13 9 8 9 10 9 8 7 5 5 7 5 4 4 4 5 6 9 10 9 8 6 6 7 6 6 5 3 2 1 5 4 5 8 9 11 12 13 15 16 18 19 18
11 11 11 6 1 7 16 15 15 11 11 9 9 8 8 9 8 8 9 8 8 8 9 11 11 10 7 5 4 2 4 4 4 1 4 2 4 4 5 7 8 10 13 14 14 16 20 21 21
16 14 11 16 17 14 15 16 10 8 11 6 6 7 7 9 9 9 10 10 11 10 10 11 9 8 5 4 5 5 5 4 3 4 3 3 4 4 5 6 8 10 13 15 16 17 19 23 22
17 13 17 14 16 14 4 14 16 5 10 12 11 10 10 9 9 9 11 11 10 9 9 8 7 5 5 4 3 2 0 2 5 3 2 2 3 3 5 7 8 10 14 14 16 17 18 20 24
16 15 15 15 17 17 16 10 11 5 7 12 11 10 10 11 11 10 11 11 10 8 7 7 6 6 5 5 4 5 5 5 3 2 2 2 2 4 6 8 10 12 13 13 15 16 18 20 21
12 15 18 17 15 13 10 7 11 10 11 11 9 9 11 12 12 11 11 10 9 9 7 7 7 6 5 5 7 6 5 2 0 2 1 3 4 6 5 11 12 12 12 14 16 17 17 18 18
7 12 12 12 11 9 5 7 12 13 8 7 9 11 12 12 11 10 9 8 8 8 7 6 5 5 6 8 6 5 3 3 2 1 4 5 5 7 8 11 13 12 13 15 15 16 16 16 17
11 9 10 17 13 16 17 10 5 4 3 3 5 12 12 12 11 10 10 8 9 8 8 7 7 8 8 6 4 3 3 1 3 4 6 5 6 7 9 11 11 11 13 12 14 15 14 15 14
7 9 7 11 18 10 13 7 8 4 2 3 8 10 11 11 12 10 9 8 9 9 8 7 8 7 6 4 2 2 2 1 3 4 5 7 8 10 9 11 10 11 12 11 12 14 14 12 11
12 5 11 8 10 14 12 9 8 3 6 5 9 10 11 13 12 6 10 10 9 8 9 7 6 4 3 3 3 3 2 2 5 3 5 9 11 10 10 10 10 12 12 11 11 12 12 12 11
7 11 6 5 7 14 14 6 2 5 9 8 8 11 13 15 11 10 10 11 12 10 10 9 7 5 4 5 4 4 3 6 6 7 8 10 11 11 12 11 11 12 12 11 11 11 11 12 12
9 14 15 10 14 8 12 11 6 6 6 5 3 10 13 16 14 10 11 11 10 10 8 7 6 7 7 6 6 5 5 7 7 9 11 12 11 11 12 11 12 13 13 13 12 12 12 13 13
Wind_Direction
175 202 240 242 230 211 113 99 83 124 148 87 126 260 6 356 352 31 144 161 161 160 158 162 163 163 163 159 158 153 152 154 151 146 154 149 137 128 111 107 96 80 72 62 50 44 38 21 10
216 240 234 247 244 171 98 115 127 68 91 118 145 193 220 73 67 106 137 171 167 164 167 168 168 167 164 161 165 164 164 161 155 144 142 137 130 121 115 99 91 82 72 66 56 52 40 23 5
254 260 269 222 170 85 99 107 96 104 124 131 169 268 360 60 105 139 139 163 164 165 168 175 173 173 169 170 169 166 157 151 143 138 139 143 138 129 109 89 73 69 64 55 47 44 37 29 17
288 206 215 104 102 95 81 104 111 142 164 236 360 137 134 48 87 131 144 157 163 167 169 181 173 172 169 169 168 166 163 159 157 157 156 149 134 119 104 87 70 65 57 51 51 36 17 11 6
265 250 133 110 91 102 102 98 158 130 97 116 262 69 52 115 114 138 149 159 166 167 167 173 174 172 170 172 170 173 166 163 155 148 137 124 106 104 95 79 66 63 61 59 56 48 37 26 30
222 244 150 103 97 107 124 174 159 180 156 98 254 339 64 122 144 149 155 163 167 166 170 173 179 174 178 178 181 179 169 163 157 145 129 121 114 126 111 91 75 69 60 55 51 48 47 59 49
323 259 75 115 102 113 75 188 212 157 216 155 322 313 83 157 155 154 158 165 172 174 175 174 178 182 189 190 189 180 172 162 155 144 138 134 127 139 125 105 80 67 58 42 28 26 18 13 356
300 272 170 101 51 88 76 212 297 245 140 88 224 274 109 160 161 161 165 170 175 179 182 182 180 185 192 197 193 186 177 167 157 154 152 150 145 142 93 96 313 307 322 343 334 333 328 321 313
283 229 158 112 180 79 88 239 144 343 202 218 190 284 67 147 161 165 172 177 182 183 187 190 187 186 189 187 198 194 185 177 166 145 166 137 193 219 268 261 257 277 294 295 301 306 303 305 297
274 285 69 27 55 21 149 299 168 250 205 222 202 133 157 159 169 178 183 184 186 184 192 196 194 192 190 189 183 186 191 188 180 176 180 192 213 248 248 257 263 267 280 290 297 293 301 295 294
75 17 58 80 360 299 303 280 251 271 283 282 278 195 172 176 182 190 194 193 186 187 196 200 196 200 196 194 192 189 185 196 197 193 195 230 245 256 269 277 278 280 284 293 296 302 285 304 299
291 99 308 11 291 312 302 320 271 285 354 339 316 320 175 188 189 197 201 197 186 193 200 204 203 202 203 201 197 203 198 196 198 205 211 216 271 266 280 287 295 287 289 300 293 294 306 292 290
256 329 318 256 286 282 310 275 322 359 341 328 343 194 183 190 200 202 201 198 195 202 205 209 206 206 208 208 208 205 203 211 212 218 249 248 257 283 287 290 288 290 291 289 291 284 287 290 281
338 314 303 280 277 273 304 332 278 102 343 37 66 134 164 183 192 185 198 198 205 205 212 215 216 214 208 210 207 210 221 237 237 232 243 265 275 284 292 292 288 287 285 275 281 279 275 273 279
295 291 169 123 53 17 321 225 298 19 347 115 119 134 142 163 179 190 193 200 208 223 232 232 233 222 220 227 218 227 219 231 233 253 242 267 272 283 293 296 287 285 286 290 280 272 268 271 267
269 241 252 93 303 92 281 345 110 307 281 244 166 156 151 161 174 176 171 194 221 253 268 266 245 214 209 224 223 224 225 250 244 247 255 264 271 285 288 291 291 296 297 293 284 287 279 279 270
212 272 251 266 219 305 253 313 109 253 242 245 219 178 160 152 150 156 183 214 251 283 274 227 184 194 200 209 207 222 234 226 230 218 221 240 300 307 292 290 297 303 302 299 302 300 288 283 282
267 314 310 265 115 246 262 264 230 220 230 226 211 196 196 169 132 137 222 244 224 150 114 133 151 149 160 176 199 203 192 182 176 153 171 283 299 305 298 306 304 309 315 312 313 314 309 300 289
305 297 292 294 314 272 300 299 282 225 222 227 214 206 202 169 116 117 109 115 121 113 118 127 127 127 127 138 166 172 180 160 150 160 302 342 44 23 351 333 329 337 326 326 326 322 315 307 307
280 282 281 296 257 290 301 304 289 233 246 242 212 191 182 156 143 126 112 114 111 110 118 124 118 120 122 124 127 130 157 157 175 110 109 63 41 15 2 360 346 341 332 327 330 324 317 309 309
261 270 286 297 312 276 260 274 235 234 241 231 222 175 171 163 141 129 114 112 116 109 119 125 115 110 107 119 131 141 152 157 159 138 114 55 40 24 14 4 351 338 330 328 323 320 314 310 303
271 276 291 301 287 293 327 291 298 221 227 221 213 202 189 155 142 130 122 114 112 113 124 128 122 111 103 119 128 174 57 140 96 99 82 66 54 22 12 358 346 338 335 327 320 320 314 308 307
298 296 301 298 291 292 285 243 282 202 249 241 214 205 193 169 146 125 117 116 120 130 134 138 136 124 117 111 118 133 116 118 105 104 104 82 24 21 4 351 343 342 334 327 322 319 318 316 314
291 277 270 263 260 259 295 321 292 311 356 320 173 188 166 158 131 128 122 120 127 135 143 141 133 125 128 120 116 111 103 67 73 93 335 360 341 335 347 347 343 335 332 330 328 323 323 324 317
246 257 271 265 248 283 168 287 297 332 343 304 173 172 160 146 145 142 141 131 140 143 147 142 148 132 138 135 129 125 120 128 133 312 356 334 342 342 347 342 336 336 333 331 329 328 331 322 321
300 307 289 299 302 312 318 280 9 19 11 329 143 149 149 153 141 139 131 153 143 144 154 148 141 140 139 148 142 142 144 19 343 351 341 344 341 338 332 333 332 332 332 329 335 329 330 325 326
290 252 350 300 271 250 276 297 243 167 198 208 167 166 154 147 136 131 144 148 141 148 154 151 141 144 157 147 163 175 169 79 349 340 331 334 329 329 326 328 323 326 321 329 337 332 318 321 329
253 329 277 260 287 289 297 280 294 166 12 190 206 193 164 150 128 149 152 148 144 153 145 155 166 169 185 214 237 227 215 310 321 293 313 324 322 319 319 322 317 321 317 319 324 332 335 323 321
246 246 230 302 294 291 290 304 72 10 352 337 197 201 171 152 154 165 146 154 167 169 167 181 192 205 228 243 246 238 268 310 298 290 305 312 312 313 317 316 315 317 317 315 313 320 318 321 318
284 292 303 288 278 261 287 286 83 62 31 32 151 174 173 158 174 147 148 158 173 178 183 194 227 248 250 251 237 242 276 301 287 288 299 303 303 311 313 309 311 313 315 315 313 313 316 315 309